Tracking 19125 objects as of 19-Apr-2018
HD Live streaming from Space Station
objects crossing your sky now

CLUSTER II-FM7

Track CLUSTER II-FM7 now!
CLUSTER II-FM7 is classified as:


NORAD ID: 26411
Int'l Code: 2000-041B
Perigee: 30,222.6 km
Apogee: 102,546.9 km
Inclination: 130.0 °
Period: 3,255.1 minutes
Semi major axis: 72755 km
RCS: 1.5887 m2 (large)
Launch date: July 16, 2000
Source: European Space Agency (ESA)
Launch site: TYURATAM MISSILE AND SPACE COMPLEX (TTMTR)
aabbcc
Your satellite tracking list
Your tracking list is empty




NASA's NSSDC Master Catalog

Two Line Element Set (TLE):
1 26411U 00041B   18109.97469604 +.00000263 +00000-0 +00000-0 0  9994
2 26411 130.0375 336.8378 4970351 168.2981 000.9459 00.44238659007147
Source of the keplerian elements: AFSPC